Flag for Germany Weather past 2 weeks in Bingen am Rhein, Rhineland-Palatinate, Germany

Now
63 °F

Overcast.


Feels Like: 63 °F
Forecast: 52 / 65 °F
Wind: 1 mph from North

Location: Wiesbaden Airport

Current Time: Aug 22, 2014 at 12:32:38 PM

Latest Report: Aug 22, 2014 at 11:58 AM


Visibility: N/A

Pressure: 29.98 "Hg

Humidity: 59%

Dew point: 48 °F

Location of Bingen am RheinLocation

Historic Weather in Bingen am Rhein — Graph

°F

Bingen am Rhein temperature yesterday

Maximum temperature yesterday: 67 °F (at 6:58 PM)
Minimum temperature yesterday: 46 °F (at 4:58 AM)
Average temperature yesterday: 57 °F

Past Weeks' High & Low Weather Summary

 TemperatureHumidityPressure
High81 °F (Aug 8, 2:58 PM)100% (Aug 10, 6:58 PM)30.12 "Hg (Aug 10, 6:58 PM)
Low45 °F (Aug 22, 6:58 AM)41% (Aug 12, 6:58 PM)29.66 "Hg (Aug 13, 3:58 PM)
Average62 °F75%29.91 "Hg
* Reported Aug 7 10:58 AM — Aug 22 10:58 AM, Bingen am Rhein, Weather by CustomWeather, © 2014

Note: Actual official high and low records may vary slightly from our data, if they occured in-between our weather recording intervals... More about our weather records

Advertising

Bingen am Rhein weather history for previous 24 hours

 ConditionsComfort  
Time TempWeatherWind HumidityBarometerVisibility
10:58 AM
Aug 22
58 °FOvercast.2 mph69%30.01 "HgN/A
9:58 AM55 °FPartly sunny.3 mph72%30.01 "HgN/A
8:58 AM54 °FScattered clouds.No wind77%29.99 "HgN/A
7:58 AM50 °FPassing clouds.No wind87%30.00 "HgN/A
6:58 AM45 °FClear.No wind93%30.01 "HgN/A
5:58 AM45 °FClear.No wind92%30.00 "HgN/A
4:58 AM45 °FClear.No wind90%30.00 "HgN/A
3:58 AM46 °FClear.1 mph87%30.01 "HgN/A
2:58 AM48 °FClear.3 mph87%30.01 "HgN/A
1:58 AM48 °FClear.No wind87%30.02 "HgN/A
12:58 AM50 °FClear.No wind82%30.02 "HgN/A
11:58 PM
Aug 21
50 °FClear.2 mph84%30.02 "HgN/A
10:58 PM54 °FClear.5 mph77%30.02 "HgN/A
9:58 PM56 °FClear.No wind71%30.02 "HgN/A
8:58 PM60 °FSunny.2 mph61%30.01 "HgN/A
7:58 PM64 °FSunny.5 mph50%30.00 "HgN/A
6:58 PM67 °FSunny.7 mph43%30.00 "HgN/A
5:58 PM66 °FSunny.10 mph49%30.01 "HgN/A
4:58 PM66 °FPartly sunny.9 mph47%30.02 "HgN/A
3:58 PM64 °FOvercast.10 mph50%30.03 "HgN/A
2:58 PM64 °FOvercast.8 mph49%30.04 "HgN/A
1:58 PM64 °FSunny.3 mph50%30.05 "HgN/A
12:58 PM65 °FSunny.7 mph50%30.05 "HgN/A
Weather by CustomWeather, © 2014

See weather overviewHow to use our weather pages